Paris, IL

1:42 PM CDT on April 24, 2017 (GMT -0500)
Edgar County

Weather History for KPRG - March, 2013

Change the Weather History Date:

Wednesday, March 20, 2013

  Actual Average (KHUF) Record (KHUF)
Temperature  
Mean Temperature 26 °F -  
Max Temperature 30 °F 53 °F 84 °F (2012)
Min Temperature 21 °F 33 °F 11 °F (1965)
Degree Days  
Heating Degree Days 39    
Moisture  
Dew Point 16 °F    
Average Humidity 64    
Maximum Humidity 83    
Minimum Humidity 43    
Precipitation  
Precipitation 0.00 in - - ()
Sea Level Pressure  
Sea Level Pressure 30.11 in    
Wind  
Wind Speed 12 mph (WNW)    
Max Wind Speed 23 mph    
Max Gust Speed 33 mph    
Visibility 9 miles    
Events      
Averages and records for this station are not official NWS values.
T = Trace of Precipitation, MM = Missing Value Source: NWS Daily Summary

Daily Weather History Graph

Daily Weather History Graph

Search for Another Location

Airport or City:

Trip Planner

Search our weather history database for the weather conditions in past years. The results will help you decide how hot, cold, wet, or windy it might be!

Date:

Astronomy

Mar. 20, 2013 Rise Set
Actual Time 6:53 AM CDT 7:02 PM CDT
Civil Twilight 6:26 AM CDT 7:29 PM CDT
Nautical Twilight 5:55 AM CDT 8:01 PM CDT
Astronomical Twilight 5:23 AM CDT 8:33 PM CDT
Moon 12:38 PM CDT (3/20) 2:32 AM CDT (3/20)
Length of Visible Light 13h 03m
Length of Day
12h 09m
First Quarter, 59% of the Moon is Illuminated
Mar 20
First Quarter
Mar 27
Full
Apr 2
Last Quarter
Apr 10
New
Apr 18
First Quarter

Hourly Weather History & Observations

Time (CDT) Temp. Windchill Dew Point Humidity Pressure Visibility Wind Dir Wind Speed Gust Speed Precip Events Conditions
12:15 AM 30.6 °F 23.8 °F 23.5 °F 75% 30.13 in 7.0 mi WSW 6.9 mph - N/A   Clear
12:35 AM 29.1 °F 23.0 °F 23.9 °F 81% 30.12 in 5.0 mi WSW 5.8 mph - N/A   Haze
12:55 AM 29.8 °F 24.9 °F 23.7 °F 78% 30.12 in 5.0 mi SW 4.6 mph - N/A   Haze
1:15 AM 29.7 °F 23.7 °F 23.5 °F 78% 30.12 in 5.0 mi WSW 5.8 mph - N/A   Haze
1:35 AM 30.0 °F 24.1 °F 23.0 °F 75% 30.11 in 5.0 mi WSW 5.8 mph - N/A   Haze
1:55 AM 30.2 °F 24.3 °F 23.5 °F 76% 30.11 in 5.0 mi WSW 5.8 mph - N/A   Haze
2:15 AM 29.3 °F 23.2 °F 23.7 °F 80% 30.10 in 5.0 mi WSW 5.8 mph - N/A   Haze
2:35 AM 28.8 °F 23.7 °F 23.2 °F 80% 30.10 in 5.0 mi West 4.6 mph - N/A   Haze
2:55 AM 28.2 °F 22.0 °F 23.2 °F 81% 30.10 in 5.0 mi WSW 5.8 mph - N/A   Haze
3:15 AM 28.0 °F 21.7 °F 23.5 °F 83% 30.09 in 5.0 mi West 5.8 mph - N/A   Haze
3:35 AM 28.0 °F 20.0 °F 22.8 °F 81% 30.09 in 7.0 mi West 8.1 mph - N/A   Clear
4:15 AM 27.0 °F 20.5 °F 21.9 °F 81% 30.09 in 5.0 mi WNW 5.8 mph - N/A   Haze
4:35 AM 26.2 °F 20.7 °F 21.4 °F 82% 30.09 in 5.0 mi WNW 4.6 mph - N/A   Haze
4:55 AM 26.1 °F 19.4 °F 21.2 °F 82% 30.09 in 10.0 mi WNW 5.8 mph - N/A   Clear
5:15 AM 25.7 °F 17.1 °F 20.8 °F 82% 30.09 in 10.0 mi WNW 8.1 mph - N/A   Clear
5:35 AM 26.4 °F 16.0 °F 21.0 °F 80% 30.10 in 10.0 mi WNW 11.5 mph - N/A   Clear
5:55 AM 26.2 °F 15.8 °F 20.3 °F 78% 30.10 in 10.0 mi WNW 11.5 mph - N/A   Clear
6:15 AM 25.7 °F 15.7 °F 20.3 °F 80% 30.11 in 10.0 mi WNW 10.4 mph - N/A   Clear
6:35 AM 25.5 °F 14.9 °F 20.3 °F 81% 30.11 in 10.0 mi WNW 11.5 mph - N/A   Clear
6:55 AM 25.5 °F 15.5 °F 20.1 °F 80% 30.11 in 10.0 mi WNW 10.4 mph - N/A   Clear
7:15 AM 25.7 °F 15.7 °F 21.0 °F 82% 30.12 in 10.0 mi West 10.4 mph - N/A   Scattered Clouds
7:35 AM 26.1 °F 15.6 °F 21.2 °F 82% 30.12 in 10.0 mi WNW 11.5 mph - N/A   Mostly Cloudy
7:55 AM 26.1 °F 13.1 °F 21.2 °F 82% 30.13 in 10.0 mi NW 17.3 mph 21.9 mph N/A   Overcast
8:15 AM 25.3 °F 12.2 °F 17.2 °F 71% 30.14 in 10.0 mi NW 17.3 mph 24.2 mph N/A   Overcast
8:35 AM 25.0 °F 12.6 °F 16.2 °F 69% 30.15 in 10.0 mi NW 15.0 mph - N/A   Overcast
8:55 AM 24.6 °F 11.3 °F 14.9 °F 67% 30.15 in 10.0 mi NW 17.3 mph 25.3 mph N/A   Overcast
9:15 AM 24.8 °F 11.1 °F 13.5 °F 62% 30.15 in 10.0 mi WNW 18.4 mph 29.9 mph N/A   Scattered Clouds
9:35 AM 24.8 °F 11.9 °F 15.8 °F 69% 30.15 in 10.0 mi WNW 16.1 mph 27.6 mph N/A   Clear
9:55 AM 25.3 °F 11.8 °F 14.5 °F 64% 30.15 in 10.0 mi WNW 18.4 mph 25.3 mph N/A   Scattered Clouds
10:15 AM 25.3 °F 12.6 °F 12.4 °F 58% 30.16 in 10.0 mi WNW 16.1 mph 24.2 mph N/A   Clear
10:35 AM 25.3 °F 11.4 °F 13.5 °F 61% 30.17 in 10.0 mi WNW 19.6 mph 24.2 mph N/A   Scattered Clouds
10:55 AM 25.7 °F 11.9 °F 12.7 °F 58% 30.17 in 10.0 mi WNW 19.6 mph 26.5 mph N/A   Scattered Clouds
11:15 AM 27.1 °F 13.4 °F 13.8 °F 57% 30.17 in 10.0 mi West 20.7 mph 26.5 mph N/A   Clear
11:35 AM 27.0 °F 13.2 °F 12.2 °F 54% 30.16 in 10.0 mi WNW 20.7 mph 26.5 mph N/A   Clear
11:55 AM 27.7 °F 14.5 °F 12.7 °F 54% 30.15 in 10.0 mi WNW 19.6 mph 29.9 mph N/A   Clear
12:15 PM 28.6 °F 15.3 °F 13.3 °F 53% 30.15 in 10.0 mi WNW 20.7 mph 26.5 mph N/A   Clear
12:35 PM 28.9 °F 16.9 °F 13.8 °F 53% 30.14 in 10.0 mi WNW 17.3 mph 32.2 mph N/A   Scattered Clouds
12:55 PM 29.1 °F 16.0 °F 14.4 °F 54% 30.14 in 10.0 mi WNW 20.7 mph 29.9 mph N/A   Mostly Cloudy
1:15 PM 28.0 °F 15.3 °F 12.9 °F 53% 30.13 in 10.0 mi WNW 18.4 mph 27.6 mph N/A   Overcast
1:35 PM 29.1 °F 16.0 °F 14.9 °F 55% 30.13 in 10.0 mi WNW 20.7 mph 32.2 mph N/A   Overcast
1:55 PM 28.6 °F 16.0 °F 14.0 °F 54% 30.12 in 10.0 mi WNW 18.4 mph 27.6 mph N/A   Mostly Cloudy
2:15 PM 28.6 °F 15.3 °F 13.8 °F 54% 30.11 in 10.0 mi WNW 20.7 mph 27.6 mph N/A   Overcast
2:35 PM 30.0 °F 17.9 °F 14.5 °F 53% 30.10 in 10.0 mi WNW 18.4 mph 25.3 mph N/A   Mostly Cloudy
2:55 PM 29.8 °F 17.0 °F 13.6 °F 51% 30.10 in 10.0 mi West 20.7 mph 29.9 mph N/A   Mostly Cloudy
3:15 PM 29.3 °F 18.6 °F 12.9 °F 51% 30.09 in 10.0 mi NW 13.8 mph 23.0 mph N/A   Mostly Cloudy
3:35 PM 30.7 °F 17.5 °F 12.9 °F 48% 30.09 in 10.0 mi WNW 23.0 mph 28.8 mph N/A   Mostly Cloudy
3:55 PM 30.6 °F 17.9 °F 12.2 °F 47% 30.09 in 10.0 mi WNW 20.7 mph 28.8 mph N/A   Overcast
4:15 PM 30.9 °F 19.8 °F 12.7 °F 47% 30.08 in 10.0 mi WNW 16.1 mph 24.2 mph N/A   Mostly Cloudy
4:35 PM 29.7 °F 17.8 °F 10.8 °F 45% 30.08 in 10.0 mi WNW 17.3 mph 27.6 mph N/A   Mostly Cloudy
4:55 PM 30.7 °F 18.1 °F 11.8 °F 46% 30.08 in 10.0 mi WNW 20.7 mph 33.4 mph N/A   Mostly Cloudy
5:15 PM 30.2 °F 17.8 °F 10.2 °F 43% 30.08 in 10.0 mi West 19.6 mph 28.8 mph N/A   Mostly Cloudy
5:35 PM 29.8 °F 17.3 °F 10.4 °F 44% 30.08 in 10.0 mi WNW 19.6 mph 29.9 mph N/A   Scattered Clouds
5:55 PM 29.8 °F 17.3 °F 10.6 °F 45% 30.08 in 10.0 mi WNW 19.6 mph 25.3 mph N/A   Mostly Cloudy
6:15 PM 29.3 °F 16.2 °F 10.8 °F 46% 30.08 in 10.0 mi WNW 20.7 mph 28.8 mph N/A   Overcast
6:35 PM 28.8 °F 15.5 °F 11.3 °F 48% 30.08 in 10.0 mi WNW 20.7 mph 25.3 mph N/A   Mostly Cloudy
6:55 PM 28.2 °F 15.9 °F 11.3 °F 49% 30.08 in 10.0 mi WNW 17.3 mph 27.6 mph N/A   Mostly Cloudy
7:15 PM 27.9 °F 15.1 °F 11.1 °F 50% 30.08 in 10.0 mi WNW 18.4 mph 25.3 mph N/A   Mostly Cloudy
7:35 PM 27.7 °F 14.5 °F 11.5 °F 51% 30.08 in 10.0 mi WNW 19.6 mph 27.6 mph N/A   Overcast
7:55 PM 27.5 °F 14.2 °F 12.0 °F 52% 30.08 in 10.0 mi WNW 19.6 mph 25.3 mph N/A   Overcast
8:15 PM 27.1 °F 15.4 °F 12.0 °F 53% 30.08 in 10.0 mi WNW 15.0 mph 24.2 mph N/A   Overcast
8:35 PM 27.0 °F 13.9 °F 12.0 °F 53% 30.08 in 10.0 mi WNW 18.4 mph 25.3 mph N/A   Overcast
8:55 PM 26.2 °F 14.7 °F 13.1 °F 58% 30.08 in 10.0 mi NW 13.8 mph 23.0 mph N/A   Overcast
9:15 PM 25.7 °F 13.5 °F 12.4 °F 57% 30.08 in 10.0 mi WNW 15.0 mph 26.5 mph N/A   Mostly Cloudy
9:35 PM 24.8 °F 12.4 °F 12.0 °F 58% 30.08 in 10.0 mi WNW 15.0 mph 21.9 mph N/A   Clear
9:55 PM 24.3 °F 12.7 °F 12.6 °F 61% 30.08 in 10.0 mi WNW 12.7 mph 19.6 mph N/A   Clear
10:15 PM 23.9 °F 12.9 °F 12.9 °F 63% 30.07 in 10.0 mi NW 11.5 mph 18.4 mph N/A   Clear
10:35 PM 23.5 °F 13.7 °F 13.1 °F 64% 30.07 in 10.0 mi NW 9.2 mph - N/A   Clear
10:55 PM 23.0 °F 13.1 °F 13.5 °F 67% 30.07 in 10.0 mi WNW 9.2 mph - N/A   Clear
11:15 PM 22.6 °F 14.3 °F 13.5 °F 68% 30.07 in 10.0 mi NW 6.9 mph - N/A   Scattered Clouds
11:35 PM 22.1 °F 15.9 °F 14.0 °F 71% 30.07 in 10.0 mi NW 4.6 mph - N/A   Clear
11:55 PM 21.7 °F 12.3 °F 13.8 °F 72% 30.07 in 10.0 mi NW 8.1 mph - N/A   Clear